Flag for Iceland Weather past 2 weeks in Keflavík, Iceland

Now
46 °F

Passing clouds.


Feels Like: 46 °F
Forecast: 47 / 54 °F
Wind: 1 mph from South

Location: Keflavikurflugvollur

Current Time: Jul 29, 2015 at 2:59:06 AM

Latest Report: Jul 29, 2015 at 2:30 AM


Visibility: N/A

Pressure: 29.98 "Hg

Humidity: 93%

Dew point: 45 °F

Location of KeflavíkLocation

Historic Weather in Keflavík — Graph

°F

Keflavík temperature yesterday

Maximum temperature yesterday: 55 °F (at 3:30 PM)
Minimum temperature yesterday: 43 °F (at 3:30 AM)
Average temperature yesterday: 51 °F

Past Weeks' High & Low Weather Summary

 TemperatureHumidityPressure
High57 °F (Jul 15, 4:00 PM)100% (Jul 14, 2:00 AM)30.07 "Hg (Jul 14, 2:00 AM)
Low43 °F (Jul 28, 3:30 AM)54% (Jul 24, 5:30 PM)29.68 "Hg (Jul 14, 3:00 AM)
Average51 °F77%29.89 "Hg
* Reported Jul 14 2:00 AM — Jul 29 2:00 AM, Keflavík, Weather by CustomWeather, © 2015

Note: Actual official high and low records may vary slightly from our data, if they occured in-between our weather recording intervals... More about our weather records

Advertising

Keflavík weather history for previous 24 hours

 ConditionsComfort  
Time TempWeatherWind HumidityBarometerVisibility
2:00 AM
Wed, Jul 29
48 °FPassing clouds.2 mph87%29.98 "HgN/A
1:00 AM48 °FPassing clouds.No wind87%29.98 "HgN/A
12:30 AM48 °FPassing clouds.1 mph87%29.98 "HgN/A
12:00 AM48 °FPartly cloudy.No wind87%29.98 "HgN/A
11:30 PM
Tue, Jul 28
48 °FPassing clouds.1 mph87%29.98 "HgN/A
11:00 PM48 °FPassing clouds.3 mph87%29.98 "HgN/A
10:30 PM48 °FScattered clouds.3 mph87%29.98 "HgN/A
10:00 PM50 °FScattered clouds.3 mph82%29.98 "HgN/A
9:30 PM52 °FScattered clouds.3 mph77%29.98 "HgN/A
9:00 PM52 °FScattered clouds.3 mph77%29.98 "HgN/A
8:30 PM52 °FPassing clouds.5 mph82%29.98 "HgN/A
8:00 PM52 °FPassing clouds.7 mph82%29.98 "HgN/A
7:30 PM54 °FPassing clouds.6 mph77%29.98 "HgN/A
7:00 PM54 °FPassing clouds.7 mph77%29.98 "HgN/A
6:30 PM54 °FScattered clouds.6 mph77%29.98 "HgN/A
6:00 PM55 °FRain showers. Scattered clouds.2 mph77%29.98 "HgN/A
5:30 PM55 °FScattered clouds.3 mph72%29.98 "HgN/A
5:00 PM54 °FScattered showers. Broken clouds.2 mph82%29.98 "HgN/A
4:30 PM54 °FSprinkles. Partly sunny.2 mph82%29.98 "HgN/A
4:00 PM54 °FScattered clouds.5 mph77%29.98 "HgN/A
3:30 PM55 °FScattered clouds.3 mph72%29.98 "HgN/A
3:00 PM54 °FBroken clouds.5 mph77%29.98 "HgN/A
2:30 PM54 °FBroken clouds.6 mph82%29.98 "HgN/A
2:00 PM54 °FBroken clouds.2 mph82%29.98 "HgN/A
1:30 PM52 °FLight rain. Broken clouds.3 mph82%29.98 "HgN/A
1:00 PM54 °FLight rain. Partly sunny.6 mph77%29.98 "HgN/A
12:30 PM54 °FScattered showers. Partly sunny.3 mph77%29.98 "HgN/A
12:00 PM54 °FScattered clouds.7 mph77%29.98 "HgN/A
11:30 AM54 °FScattered clouds.8 mph77%29.98 "HgN/A
11:00 AM54 °FBroken clouds.3 mph82%29.98 "HgN/A
10:30 AM54 °FBroken clouds.2 mph77%29.98 "HgN/A
10:00 AM54 °FBroken clouds.2 mph77%29.98 "HgN/A
9:30 AM54 °FScattered clouds.3 mph72%29.98 "HgN/A
9:00 AM52 °FScattered clouds.2 mph82%29.98 "HgN/A
8:30 AM52 °FSunny.No wind82%29.98 "Hg10 mi
8:00 AM52 °FSunny.2 mph82%29.98 "Hg10 mi
7:30 AM50 °FSunny.No wind94%29.98 "Hg10 mi
7:00 AM48 °FSunny.3 mph94%29.98 "Hg10 mi
6:30 AM48 °FSunny.1 mph94%29.98 "Hg10 mi
6:00 AM46 °FSunny.1 mph93%29.98 "Hg10 mi
5:30 AM46 °FSunny.5 mph93%29.95 "Hg10 mi
5:00 AM45 °FSunny.5 mph93%29.98 "Hg10 mi
4:30 AM45 °FSunny.5 mph93%29.98 "Hg10 mi
3:30 AM43 °FClear.3 mph100%29.98 "Hg10 mi
3:00 AM45 °FClear.7 mph93%29.98 "Hg10 mi
2:30 AM45 °FClear.8 mph93%29.98 "Hg10 mi
2:00 AM45 °FClear.8 mph93%29.98 "Hg10 mi
Weather by CustomWeather, © 2015

See weather overviewHow to use our weather pages